Volver al catálogo

FENGYUN 1C DEB

ActivoSSO
NORAD 41822·DEBRIS·🇨🇳 China

Lanzado May 10, 1999 desde Taiyuan Satellite Launch Center

Loading…

Próximos Pases (próximas 24 horas)

TLE

ActualizadoSource: Space-Track

Época: Sep 14, 2026, 03:26 UTC

1 41822U 99025EXZ 26257.14357764  .00002044  00000-0  85419-3 0  9991
2 41822  98.7141 326.9505 0055242 140.6690 219.8522 14.26411713512976

Sigue FENGYUN 1C DEB en tiempo real con AllMySat

Download on the App Store